Zurück zum Katalog

CZ-6A DEB

AktivPO
NORAD 60965·DEBRIS·🇨🇳 China

Gestartet Aug 6, 2024 von Taiyuan Satellite Launch Center

Loading…

Nächste Überflüge (nächste 24 Stunden)

TLE

AktuellSource: Space-Track

Epoche: Sep 14, 2026, 06:05 UTC

1 60965U 24140LQ  26257.25355968  .00003515  00000-0  28898-3 0  9994
2 60965  88.9234 247.9176 0168605 186.4034 173.5044 14.88345530111637

Verfolge CZ-6A DEB in Echtzeit mit AllMySat

Download on the App Store